Ahmedabad, India

3:00 PM IST on July 22, 2017 (GMT +0530)
Ahmedabad

Weather History for VAAH - December, 2012

Change the Weather History Date:

Thursday, December 20, 2012

  Actual Average Record
Temperature  
Mean Temperature 69 °F -  
Max Temperature 81 °F 79 °F 87 °F (2010)
Min Temperature 57 °F 54 °F 46 °F (2015)
Cooling Degree Days 4    
Growing Degree Days 19 (Base 50)    
Moisture  
Dew Point 45 °F    
Average Humidity 45    
Maximum Humidity 77    
Minimum Humidity 21    
Precipitation  
Precipitation 0.00 in 0.00 in - ()
Sea Level Pressure  
Sea Level Pressure 29.93 in    
Wind  
Wind Speed 5 mph ()    
Max Wind Speed 9 mph    
Max Gust Speed -    
Visibility 2.7 miles    
Events      
Averages and records for this station are not official NWS values.
T = Trace of Precipitation, MM = Missing Value Source: Averaged Metar Reports

Daily Weather History Graph

Daily Weather History Graph

Search for Another Location

Airport or City:

Trip Planner

Search our weather history database for the weather conditions in past years. The results will help you decide how hot, cold, wet, or windy it might be!

Date:

Astronomy

Dec. 20, 2012 Rise Set
Actual Time 7:15 AM IST 5:58 PM IST
Civil Twilight 6:50 AM IST 6:23 PM IST
Nautical Twilight 6:22 AM IST 6:51 PM IST
Astronomical Twilight 5:55 AM IST 7:19 PM IST
Moon 12:28 PM IST (12/20) No Moon Set
Length of Visible Light 11h 32m
Length of Day
10h 43m
Waxing Crescent, 50% of the Moon is Illuminated
Dec 20
Waxing Crescent
Dec 28
Full
Jan 5
Last Quarter
Jan 12
New
Jan 19
First Quarter

Hourly Weather History & Observations

Time (IST) Temp. Dew Point Humidity Pressure Visibility Wind Dir Wind Speed Gust Speed Precip Events Conditions
12:10 AM 62.6 °F 55.4 °F 77% 29.95 in 2.5 mi NE 4.6 mph - N/A   Haze
12:40 AM 60.8 °F 51.8 °F 72% 29.95 in 2.5 mi NE 3.5 mph - N/A   Haze
1:10 AM 59.0 °F 51.8 °F 77% 29.95 in 2.5 mi North 3.5 mph - N/A   Haze
1:40 AM 59.0 °F 51.8 °F 77% 29.95 in 2.5 mi NNE 5.8 mph - N/A   Haze
2:30 AM 65 °F 53 °F 55% 29.97 in 1 mi NE 4.6 mph - -   Haze
2:40 AM 60.8 °F 48.2 °F 63% 29.95 in 2.5 mi NNE 4.6 mph - N/A   Haze
3:10 AM 62.6 °F 46.4 °F 55% 29.92 in 2.5 mi NE 5.8 mph - N/A   Haze
3:40 AM 60.8 °F 46.4 °F 59% 29.92 in 2.5 mi ENE 5.8 mph - N/A   Haze
4:40 AM 60.8 °F 46.4 °F 59% 29.92 in 2.5 mi ENE 5.8 mph - N/A   Haze
5:10 AM 59.0 °F 46.4 °F 63% 29.92 in 2.5 mi ENE 5.8 mph - N/A   Haze
5:30 AM 62 °F 49 °F 53% 29.95 in 1 mi NE 4.6 mph - -   Haze
6:10 AM 57.2 °F 44.6 °F 63% 29.95 in 2.5 mi NE 4.6 mph - N/A   Haze
6:40 AM 57.2 °F 44.6 °F 63% 29.95 in 2.2 mi ENE 8.1 mph - N/A   Haze
7:40 AM 60.8 °F 41.0 °F 48% 29.98 in 1.9 mi East 6.9 mph - N/A   Smoke
8:10 AM 60.8 °F 41.0 °F 48% 29.98 in 1.9 mi East 9.2 mph - N/A   Smoke
8:30 AM 64 °F 45 °F 39% 30.00 in 1 mi East 6.9 mph - -   Haze
9:40 AM 68.0 °F 44.6 °F 43% 30.01 in 3.7 mi East 9.2 mph - N/A   Unknown
10:10 AM 69.8 °F 44.6 °F 40% 30.01 in 3.7 mi East 9.2 mph - N/A   Unknown
10:40 AM 73.4 °F 44.6 °F 36% 30.01 in 3.7 mi ENE 9.2 mph - N/A   Unknown
11:10 AM 75.2 °F 44.6 °F 34% 29.98 in 3.7 mi East 6.9 mph - N/A   Unknown
11:30 AM 77 °F 49 °F 26% 30.01 in 2 mi East 9.2 mph - -  
12:10 PM 78.8 °F 44.6 °F 30% 29.95 in 3.7 mi East 6.9 mph - N/A   Unknown
12:40 PM 80.6 °F 44.6 °F 28% 29.92 in 3.7 mi East 6.9 mph - N/A   Unknown
1:10 PM 80.6 °F 44.6 °F 28% 29.92 in 3.7 mi ENE 6.9 mph - N/A   Unknown
1:40 PM 80.6 °F 44.6 °F 28% 29.89 in 3.7 mi ENE 8.1 mph - N/A   Unknown
2:30 PM 81 °F 50 °F 23% 29.91 in 2 mi ESE 4.6 mph - -  
2:40 PM 82.4 °F 44.6 °F 26% 29.86 in 3.7 mi NE 9.2 mph - N/A   Unknown
3:40 PM 82.4 °F 42.8 °F 25% 29.83 in 3.7 mi NE 6.9 mph - N/A   Unknown
4:10 PM 82.4 °F 42.8 °F 25% 29.83 in 3.7 mi NE 6.9 mph - N/A   Unknown
4:40 PM 80.6 °F 41.0 °F 24% 29.83 in 3.7 mi NE 5.8 mph - N/A   Unknown
5:10 PM 78.8 °F 39.2 °F 24% 29.83 in 3.7 mi ENE 6.9 mph - N/A   Unknown
5:30 PM 78 °F 46 °F 21% 29.88 in 2 mi NE 3.5 mph - -  
6:10 PM 73.4 °F 41.0 °F 31% 29.86 in 2.5 mi ENE 3.5 mph - N/A   Smoke
6:40 PM 71.6 °F 42.8 °F 35% 29.86 in 2.5 mi ENE 3.5 mph - N/A   Smoke
7:40 PM 68.0 °F 42.8 °F 40% 29.89 in 2.5 mi ENE 3.5 mph - N/A   Smoke
8:10 PM 66.2 °F 42.8 °F 43% 29.92 in 2.5 mi ENE 3.5 mph - N/A   Smoke
8:30 PM 63 °F 49 °F 50% 29.94 in 2 mi Calm Calm - -  
8:40 PM 62.6 °F 44.6 °F 52% 29.92 in 2.5 mi NNE 3.5 mph - N/A   Smoke
9:10 PM 62.6 °F 42.8 °F 48% 29.92 in 2.5 mi NE 3.5 mph - N/A   Smoke
9:40 PM 60.8 °F 42.8 °F 52% 29.92 in 2.5 mi North 3.5 mph - N/A   Smoke
10:10 PM 62.6 °F 39.2 °F 42% 29.92 in 2.5 mi NE 4.6 mph - N/A   Smoke
10:40 PM 62.6 °F 39.2 °F 42% 29.92 in 2.5 mi ENE 4.6 mph - N/A   Smoke
11:30 PM 61 °F 46 °F 48% 29.95 in 2 mi Calm Calm - -  
11:40 PM 60.8 °F 39.2 °F 45% 29.92 in 2.5 mi NE 4.6 mph - N/A   Smoke